Bangor, ME

9:32 AM EST on February 25, 2017 (GMT -0500)
Bangor International

Weather History for KBGR - March, 2012

Change the Weather History Date:

Sunday, March 25, 2012

  Actual Average Record
Temperature  
Mean Temperature 39 °F 34 °F  
Max Temperature 42 °F 43 °F 66 °F (1987)
Min Temperature 36 °F 24 °F 0 °F (2014)
Degree Days  
Heating Degree Days 26 31  
Month to date heating degree days 646 896  
Since 1 July heating degree days 5485 6542  
Cooling Degree Days 0 0  
Month to date cooling degree days 0 0  
Year to date cooling degree days 0 0  
Moisture  
Dew Point 35 °F    
Average Humidity 76    
Maximum Humidity 92    
Minimum Humidity 60    
Precipitation  
Precipitation 0.11 in 0.12 in 1.86 in (1969)
Month to date precipitation 1.20 2.67  
Year to date precipitation 4.70 8.08  
Snow  
Snow 0.00 in 0.30 in 2.40 in (1947)
Month to date snowfall 5.6 10.0  
Since 1 July snowfall 47.1 60.7  
Snow Depth 0.00 in    
Sea Level Pressure  
Sea Level Pressure 29.88 in    
Wind  
Wind Speed 5 mph (South)    
Max Wind Speed 17 mph    
Max Gust Speed 23 mph    
Visibility 9 miles    
Events Rain    
T = Trace of Precipitation, MM = Missing Value Source: NWS Daily Summary

Daily Weather History Graph

Daily Weather History Graph

Search for Another Location

Airport or City:

Trip Planner

Search our weather history database for the weather conditions in past years. The results will help you decide how hot, cold, wet, or windy it might be!

Date:

Astronomy

Mar. 25, 2012 Rise Set
Actual Time 6:28 AM EDT 6:54 PM EDT
Civil Twilight 5:58 AM EDT 7:24 PM EDT
Nautical Twilight 5:24 AM EDT 7:58 PM EDT
Astronomical Twilight 4:48 AM EDT 8:34 PM EDT
Moon 7:29 AM EDT 10:17 PM EDT
Length of Visible Light 13h 25m
Length of Day
12h 26m
Waxing Crescent, 8% of the Moon is Illuminated
Mar 25
Waxing Crescent
Mar 30
First Quarter
Apr 6
Full
Apr 13
Last Quarter
Apr 21
New

Hourly Weather History & Observations

Time (EDT) Temp. Windchill Dew Point Humidity Pressure Visibility Wind Dir Wind Speed Gust Speed Precip Events Conditions
12:53 AM 37.0 °F - 28.0 °F 70% 30.04 in 10.0 mi Calm Calm - N/A   Mostly Cloudy
1:53 AM 37.0 °F - 28.9 °F 73% 30.04 in 10.0 mi Calm Calm - N/A   Mostly Cloudy
2:53 AM 37.9 °F - 28.9 °F 70% 30.03 in 10.0 mi Calm Calm - N/A   Mostly Cloudy
3:53 AM 37.9 °F 35.5 °F 30.0 °F 73% 30.02 in 10.0 mi SSW 3.5 mph - N/A   Mostly Cloudy
4:53 AM 37.9 °F - 30.0 °F 73% 30.01 in 10.0 mi Calm Calm - N/A   Mostly Cloudy
5:53 AM 39.0 °F 34.8 °F 28.9 °F 67% 29.99 in 10.0 mi ESE 5.8 mph - N/A   Mostly Cloudy
6:53 AM 37.0 °F 34.5 °F 28.9 °F 73% 29.99 in 10.0 mi SE 3.5 mph - N/A   Overcast
7:53 AM 39.0 °F 35.7 °F 30.9 °F 73% 29.98 in 10.0 mi SE 4.6 mph - N/A   Overcast
8:53 AM 41.0 °F 36.4 °F 32.0 °F 70% 29.98 in 10.0 mi SE 6.9 mph - N/A   Overcast
9:53 AM 41.0 °F 38.0 °F 28.9 °F 62% 29.98 in 10.0 mi SE 4.6 mph - N/A   Overcast
10:53 AM 42.1 °F 40.2 °F 35.1 °F 76% 29.97 in 9.0 mi SSE 3.5 mph - 0.00 in Rain Light Rain
11:18 AM 41.0 °F 38.0 °F 35.6 °F 81% 29.96 in 7.0 mi SSE 4.6 mph - 0.02 in Rain Light Rain
11:40 AM 41.0 °F 37.1 °F 37.4 °F 87% 29.96 in 7.0 mi South 5.8 mph - 0.02 in Rain Light Rain
11:48 AM 41.0 °F 38.0 °F 37.4 °F 87% 29.96 in 7.0 mi South 4.6 mph - 0.03 in Rain Light Rain
11:53 AM 42.1 °F 37.7 °F 39.0 °F 89% 29.96 in 7.0 mi SSE 6.9 mph - 0.03 in Rain Light Rain
12:53 PM 42.1 °F 37.1 °F 37.9 °F 85% 29.94 in 7.0 mi SSE 8.1 mph - 0.04 in Rain Light Rain
1:53 PM 41.0 °F 33.5 °F 37.0 °F 86% 29.90 in 9.0 mi South 13.8 mph - 0.02 in Rain Light Rain
2:49 PM 39.2 °F 30.2 °F 37.4 °F 93% 29.87 in 10.0 mi South 17.3 mph 23.0 mph 0.02 in Rain Light Rain
2:53 PM 39.9 °F 32.1 °F 37.0 °F 89% 29.88 in 10.0 mi South 13.8 mph 23.0 mph 0.02 in Rain Light Rain
3:53 PM 39.0 °F 32.3 °F 36.0 °F 89% 29.85 in 10.0 mi South 10.4 mph - 0.00 in   Overcast
4:04 PM 39.2 °F 31.6 °F 35.6 °F 87% 29.85 in 10.0 mi South 12.7 mph - N/A   Overcast
4:29 PM 39.2 °F 32.5 °F 35.6 °F 87% 29.85 in 10.0 mi South 10.4 mph - N/A   Overcast
4:49 PM 39.2 °F 31.6 °F 35.6 °F 87% 29.84 in 10.0 mi South 12.7 mph - N/A   Overcast
4:53 PM 39.0 °F 31.8 °F 35.1 °F 86% 29.84 in 10.0 mi South 11.5 mph - N/A   Overcast
5:16 PM 39.2 °F 32.5 °F 35.6 °F 87% 29.84 in 6.0 mi South 10.4 mph - N/A   Overcast
5:23 PM 39.2 °F 32.0 °F 35.6 °F 87% 29.83 in 5.0 mi South 11.5 mph - N/A   Overcast
5:53 PM 39.0 °F 32.8 °F 37.0 °F 93% 29.83 in 4.0 mi South 9.2 mph - N/A   Overcast
6:53 PM 39.0 °F 32.8 °F 36.0 °F 89% 29.81 in 10.0 mi South 9.2 mph - N/A   Overcast
7:53 PM 39.0 °F 32.3 °F 36.0 °F 89% 29.80 in 10.0 mi South 10.4 mph - N/A   Overcast
8:35 PM 39.2 °F 32.0 °F 37.4 °F 93% 29.78 in 10.0 mi South 11.5 mph - N/A   Overcast
8:53 PM 39.0 °F 32.8 °F 37.0 °F 93% 29.78 in 10.0 mi South 9.2 mph - N/A   Overcast
9:53 PM 37.9 °F 32.1 °F 36.0 °F 93% 29.76 in 10.0 mi South 8.1 mph - N/A   Overcast
10:01 PM 37.4 °F 32.1 °F 35.6 °F 93% 29.75 in 10.0 mi South 6.9 mph - N/A   Overcast
10:14 PM 37.4 °F 32.1 °F 35.6 °F 93% 29.74 in 10.0 mi South 6.9 mph - N/A   Overcast
10:26 PM 37.4 °F 32.8 °F 35.6 °F 93% 29.74 in 10.0 mi SSW 5.8 mph - N/A   Overcast
10:53 PM 37.9 °F 33.5 °F 36.0 °F 93% 29.74 in 10.0 mi SSW 5.8 mph - N/A   Overcast
11:27 PM 37.4 °F 33.8 °F 35.6 °F 93% 29.73 in 10.0 mi SW 4.6 mph - N/A   Overcast
11:53 PM 37.9 °F 34.4 °F 36.0 °F 93% 29.70 in 10.0 mi South 4.6 mph - N/A   Overcast